This is the latest recevied weather packets stored in our database for station/object K7CTM. If no packets are shown the sender has not sent any weather packets the latest 10 day(s).
| Time | Temp. | Humidity | Pressure | Rain* | Wind** | Luminosity | Snow |
|---|---|---|---|---|---|---|---|
| 1778052399 | -1.11° C | 65% | 1028.8 hPa | 0 mm | - | 0 W/m² | - |
| 1778052097 | -0.56° C | 65% | 1028.7 hPa | 0 mm | - | 0 W/m² | - |
| 1778051794 | -0.56° C | 65% | 1028.9 hPa | 0 mm | - | 0 W/m² | - |
| 1778051492 | -0.56° C | 65% | 1028.8 hPa | 0 mm | - | 0 W/m² | - |
| 1778051189 | 0° C | 63% | 1028.8 hPa | 0 mm | - | 0 W/m² | - |
| 1778050885 | 0.56° C | 63% | 1028.8 hPa | 0 mm | - | 0 W/m² | - |
| 1778050584 | 0° C | 61% | 1028.9 hPa | 0 mm | - | 0 W/m² | - |
| 1778050280 | 0° C | 62% | 1028.9 hPa | 0 mm | - | 0 W/m² | - |
| 1778049977 | 0° C | 63% | 1029 hPa | 0 mm | - | 0 W/m² | - |
| 1778049672 | 0° C | 61% | 1029.2 hPa | 0 mm | - | 0 W/m² | - |
| 1778049371 | 1.11° C | 58% | 1028.9 hPa | 0 mm | - | 0 W/m² | - |
| 1778049068 | 1.11° C | 58% | 1028.9 hPa | 0 mm | - | 0 W/m² | - |
| 1778048766 | 1.11° C | 56% | 1029.1 hPa | 0 mm | - | 0 W/m² | - |
| 1778048463 | 1.11° C | 56% | 1029 hPa | 0 mm | - | 0 W/m² | - |
| 1778048159 | 1.11° C | 55% | 1028.8 hPa | 0 mm | - | 0 W/m² | - |
| 1778047857 | 1.11° C | 56% | 1029 hPa | 0 mm | - | 0 W/m² | - |
| 1778047555 | 0.56° C | 56% | 1029 hPa | 0 mm | - | 0 W/m² | - |
| 1778047252 | 1.11° C | 56% | 1028.9 hPa | 0 mm | - | 0 W/m² | - |
| 1778046949 | 1.11° C | 55% | 1029 hPa | 0 mm | - | 0 W/m² | - |
| 1778046645 | 1.11° C | 55% | 1028.9 hPa | 0 mm | - | 0 W/m² | - |
| 1778046342 | 1.11° C | 55% | 1029 hPa | 0 mm | - | 0 W/m² | - |
| 1778046038 | 1.11° C | 55% | 1028.9 hPa | 0 mm | - | 0 W/m² | - |
| 1778045737 | 1.11° C | 55% | 1029 hPa | 0 mm | - | 0 W/m² | - |
| 1778045435 | 1.11° C | 56% | 1029 hPa | 0 mm | - | 0 W/m² | - |
| 1778045133 | 1.11° C | 56% | 1029 hPa | 0 mm | - | 0 W/m² | - |
* Rain latest hour (hover to see other rain measurements)
** Current wind speed in m/s (hover to see current wind gust speed)